Location: Hermaringen
(48.5952°N, 10.2585°E)
Time: 06:10:41
(UTC+00:00)

UNK - Pass Details

Date: 18 November 2025
Orbit: 655 x 672 km, 98.4° (Epoch: 06 December)

Event Time Altitude Azimuth Distance (km) Brightness Sun altitude
Rises 16:58:51 0° 11° (N) 3,035 6.9 -13.6°
Reaches altitude 10° 17:01:06 10° 8° (N) 2,116 6.1 -13.9°
Maximum altitude 17:05:39 60° 289° (WNW) 772 4.3 -14.7°
Drops below altitude 10° 17:10:10 10° 210° (SSW) 2,098 6.9 -15.4°
Sets 17:12:24 0° 207° (SSW) 3,006 7.7 -15.7°
